Temp
62 63 64 64 64 63 62 61 61 61 61 62 62 62 62 63 63 63 63 63 63 63 63 63 63 63 64 64 63 63 63 63 63 62 62 61 61 61 61 60 59 60
63 63 64 62 61 60 61 62 61 61 61 61 62 63 62 62 62 63 63 63 63 63 63 63 63 63 63 63 63 63 62 62 62 63 61 61 60 60 61 60 60 59
63 63 63 62 61 60 61 61 61 62 61 62 62 62 62 63 62 62 63 63 63 63 63 63 63 63 64 63 63 63 62 62 62 62 61 61 60 60 60 60 59 59
62 62 62 62 61 61 62 61 60 61 61 61 61 62 63 63 62 62 62 65 63 63 62 62 63 63 64 64 63 62 62 62 62 62 61 60 60 61 60 60 59 59
62 61 62 62 63 62 62 61 60 61 61 62 62 61 62 62 62 62 62 62 62 62 62 62 63 63 63 63 63 62 62 61 61 62 61 60 60 60 60 60 59 59
61 61 62 62 62 61 61 62 62 61 61 61 61 61 62 62 62 62 62 61 62 62 62 62 62 63 63 63 62 62 61 61 61 61 61 60 59 60 61 60 59 59
60 60 61 62 62 62 62 62 62 61 61 61 61 61 61 62 62 62 62 62 62 62 62 62 62 62 62 62 62 61 61 62 61 62 61 60 60 59 60 60 60 60
61 61 62 62 61 61 61 61 61 61 61 61 60 61 62 63 62 62 62 63 63 63 63 62 62 62 62 62 62 61 61 62 61 61 61 60 59 60 59 61 60 60
62 61 61 61 60 60 60 60 60 60 61 61 61 61 62 62 62 62 62 63 63 63 62 62 62 62 61 62 62 62 61 61 61 61 61 60 59 60 60 60 59 59
61 61 61 60 60 59 59 60 60 61 62 61 61 61 61 62 62 63 62 62 61 61 62 61 61 61 61 62 62 62 61 61 60 60 61 60 61 60 60 60 60 59
60 61 60 60 60 59 59 60 60 61 61 61 60 60 61 61 61 62 61 61 61 62 62 61 61 61 61 61 61 61 62 61 60 60 60 60 60 61 62 60 60 60
59 59 59 60 60 59 60 60 61 61 61 61 61 61 61 61 61 60 61 62 62 61 61 60 60 60 60 60 60 60 60 60 60 60 60 59 59 59 61 60 60 60
59 59 59 60 60 60 61 60 60 60 61 61 61 61 60 60 60 61 60 60 59 59 58 57 57 57 57 57 58 58 58 58 58 58 58 57 57 59 59 59 59 59
58 58 59 60 60 60 61 61 60 60 61 61 60 60 59 60 60 59 57 57 57 56 54 55 56 55 54 54 55 57 57 57 58 58 57 56 56 56 57 58 58 58
58 58 59 59 59 60 60 60 60 60 60 60 60 58 58 59 59 57 56 55 54 54 53 53 52 51 50 51 55 55 56 56 56 57 57 57 55 56 56 56 56 56
58 58 59 59 59 59 60 60 60 59 58 59 59 58 56 56 56 56 56 54 53 52 51 50 48 48 48 47 50 55 55 57 56 57 57 57 57 56 54 55 54 53
58 58 58 58 58 59 59 58 58 58 57 57 56 56 55 55 54 54 54 54 53 52 50 48 46 47 43 43 44 51 55 57 58 57 56 56 57 57 55 54 52 53
58 58 58 58 58 57 58 58 57 57 56 55 53 53 53 53 52 52 52 52 51 51 49 48 46 43 41 43 44 48 52 56 57 58 57 56 54 55 54 53 52 51
56 57 57 56 57 57 57 57 56 55 53 53 52 52 51 51 51 50 50 51 51 50 48 48 46 42 41 43 44 46 48 53 55 55 55 54 54 54 53 52 51 50
52 56 56 56 56 56 55 54 53 52 51 50 49 50 49 49 50 50 50 50 50 49 48 47 46 43 43 44 44 44 46 50 54 54 53 53 53 52 51 49 49 48
50 52 55 54 54 54 53 51 50 49 49 48 47 47 48 49 50 49 49 49 49 49 48 46 45 42 43 43 44 45 45 48 53 52 51 50 49 49 49 48 48 48
49 49 52 53 53 52 51 50 49 48 47 47 46 45 46 48 48 49 48 48 48 48 48 46 45 42 43 43 44 45 47 52 51 51 50 49 49 49 49 49 49 49
49 49 49 50 51 50 50 49 48 47 47 47 45 44 44 45 46 47 47 47 47 47 46 45 45 43 42 44 44 45 48 51 51 50 49 48 48 49 49 49 49 49
49 49 48 48 48 48 48 48 48 47 47 46 44 43 43 43 45 45 46 47 46 46 46 45 44 43 42 43 45 46 49 51 51 50 49 48 48 48 48 48 48 50
49 49 48 48 48 47 47 47 47 46 46 45 44 44 43 44 44 45 45 46 46 46 48 45 44 44 42 42 44 46 50 52 52 50 49 48 48 47 48 47 47 45
48 49 48 48 48 48 48 47 47 46 45 44 44 44 43 44 44 46 45 45 45 45 45 44 43 43 42 41 43 44 46 52 52 51 49 48 48 48 47 46 46 45
MSLP
1014.66 1014.74 1014.38 1014.18 1014.14 1014.14 1014.26 1014.34 1014.34 1014.58 1014.94 1014.86 1014.70 1014.86 1015.58 1015.70 1015.50 1015.46 1015.54 1015.62 1015.86 1016.30 1016.38 1016.30 1016.30 1016.50 1016.62 1016.78 1016.98 1017.18 1017.42 1017.62 1017.82 1018.02 1018.26 1018.54 1018.82 1019.02 1019.26 1019.46 1019.58 1019.66
1014.30 1014.42 1014.26 1014.02 1014.18 1014.38 1014.38 1013.98 1013.90 1014.02 1014.42 1014.82 1014.90 1014.86 1015.10 1015.90 1016.14 1015.86 1015.50 1015.66 1016.06 1016.50 1016.46 1016.30 1016.26 1016.38 1016.54 1016.70 1016.90 1017.14 1017.42 1017.62 1017.86 1017.98 1018.26 1018.50 1018.70 1018.90 1019.10 1019.22 1019.38 1019.54
1014.06 1014.14 1013.98 1013.86 1014.10 1014.74 1014.50 1014.18 1013.86 1013.74 1014.02 1014.50 1014.86 1014.94 1014.90 1015.42 1016.06 1015.98 1015.58 1015.62 1016.02 1016.34 1016.30 1016.18 1016.26 1016.34 1016.46 1016.62 1016.78 1017.02 1017.30 1017.58 1017.78 1017.94 1018.14 1018.38 1018.62 1018.82 1018.94 1019.14 1019.26 1019.34
1013.78 1014.14 1014.14 1013.90 1014.02 1014.38 1014.14 1014.26 1014.10 1013.94 1014.06 1014.50 1014.74 1014.86 1015.10 1015.50 1016.14 1015.90 1015.50 1015.42 1015.54 1015.82 1016.38 1016.54 1016.42 1016.26 1016.38 1016.54 1016.74 1016.98 1017.18 1017.38 1017.50 1017.78 1018.06 1018.34 1018.50 1018.66 1018.90 1019.06 1019.14 1019.26
1013.38 1013.22 1012.98 1013.22 1013.58 1013.78 1013.98 1014.18 1014.14 1014.06 1014.06 1014.22 1014.70 1014.98 1015.10 1015.42 1015.82 1015.54 1015.34 1015.38 1015.42 1015.58 1016.14 1016.78 1016.58 1016.22 1016.34 1016.50 1016.62 1016.94 1017.18 1017.42 1017.58 1017.74 1018.02 1018.26 1018.46 1018.66 1018.86 1018.98 1019.14 1019.22
1012.86 1013.02 1013.02 1012.94 1013.18 1013.78 1013.98 1013.98 1013.74 1013.82 1013.90 1014.18 1014.58 1014.86 1014.78 1014.90 1015.10 1015.06 1015.14 1015.34 1015.46 1015.50 1015.90 1016.82 1016.66 1016.18 1016.22 1016.42 1016.62 1016.86 1017.14 1017.46 1017.62 1017.82 1018.06 1018.22 1018.46 1018.58 1018.74 1018.90 1019.06 1019.18
1013.02 1013.18 1013.02 1012.70 1012.54 1012.86 1013.22 1013.38 1013.62 1013.86 1014.06 1014.22 1014.50 1014.74 1014.54 1014.54 1014.74 1014.90 1014.98 1015.10 1015.38 1015.42 1015.62 1016.62 1016.50 1016.14 1016.14 1016.30 1016.50 1016.82 1017.06 1017.26 1017.54 1017.78 1018.02 1018.22 1018.34 1018.54 1018.62 1018.74 1018.90 1019.02
1012.66 1012.62 1012.38 1012.26 1012.46 1012.66 1012.90 1013.14 1013.50 1013.74 1013.98 1014.30 1014.46 1014.50 1014.26 1014.30 1014.50 1014.70 1015.10 1015.42 1015.38 1015.42 1015.62 1016.30 1016.02 1015.98 1016.06 1016.22 1016.46 1016.74 1017.02 1017.22 1017.46 1017.70 1017.94 1018.14 1018.30 1018.46 1018.54 1018.66 1018.78 1018.94
1012.22 1012.38 1012.54 1012.66 1012.70 1012.70 1012.90 1013.18 1013.38 1013.66 1013.98 1014.30 1014.22 1014.10 1013.98 1013.98 1014.34 1014.82 1015.50 1015.34 1015.46 1015.38 1015.54 1015.70 1015.82 1015.98 1016.10 1016.18 1016.38 1016.54 1016.82 1017.10 1017.30 1017.54 1017.78 1018.06 1018.26 1018.34 1018.46 1018.58 1018.78 1018.90
1012.62 1012.62 1012.66 1012.54 1012.46 1012.58 1012.90 1013.14 1013.26 1013.34 1013.46 1013.74 1013.94 1013.86 1013.86 1013.78 1014.26 1014.82 1015.50 1015.26 1015.62 1016.10 1015.46 1015.54 1015.74 1015.90 1016.06 1016.14 1016.26 1016.42 1016.62 1016.86 1017.18 1017.38 1017.58 1017.78 1017.94 1018.14 1018.30 1018.50 1018.62 1018.82
1012.94 1012.74 1012.66 1012.54 1012.50 1012.62 1012.86 1013.06 1013.10 1013.06 1013.18 1013.34 1013.66 1013.86 1013.78 1013.90 1014.30 1014.90 1015.26 1015.22 1015.90 1015.78 1015.34 1015.46 1015.58 1015.74 1015.98 1016.14 1016.26 1016.30 1016.42 1016.66 1016.94 1017.22 1017.42 1017.54 1017.70 1017.82 1018.06 1018.30 1018.46 1018.58
1012.94 1012.94 1012.90 1012.70 1012.86 1012.94 1012.66 1012.70 1012.74 1012.78 1012.90 1013.06 1013.02 1013.38 1013.78 1014.06 1014.30 1014.90 1015.10 1015.34 1015.86 1015.26 1015.26 1015.38 1015.50 1015.66 1015.86 1016.02 1016.18 1016.30 1016.42 1016.58 1016.78 1017.02 1017.18 1017.38 1017.54 1017.70 1017.90 1018.06 1018.18 1018.38
1012.98 1012.82 1012.50 1012.34 1012.30 1012.42 1012.38 1012.38 1012.46 1012.54 1012.70 1012.82 1012.94 1013.46 1013.86 1014.42 1014.78 1015.06 1015.02 1015.74 1015.50 1015.26 1015.34 1015.50 1015.62 1015.74 1015.86 1015.98 1016.10 1016.22 1016.34 1016.54 1016.74 1016.90 1017.14 1017.26 1017.42 1017.54 1017.70 1017.86 1018.02 1018.22
1012.90 1012.62 1012.22 1011.82 1011.70 1011.86 1011.94 1012.14 1012.42 1012.66 1012.70 1012.62 1012.66 1013.22 1013.78 1014.42 1014.70 1014.58 1015.14 1015.78 1015.42 1015.46 1015.58 1015.62 1015.70 1015.86 1015.94 1015.94 1015.98 1016.06 1016.22 1016.42 1016.58 1016.78 1017.02 1017.18 1017.34 1017.50 1017.62 1017.74 1017.90 1018.14
1012.54 1012.30 1011.90 1011.70 1011.74 1011.78 1011.74 1011.86 1012.02 1012.26 1012.50 1012.70 1012.86 1013.22 1013.54 1013.98 1014.30 1014.46 1015.38 1015.50 1015.66 1015.78 1015.78 1015.82 1015.78 1015.98 1016.06 1015.94 1015.90 1016.06 1016.10 1016.22 1016.46 1016.66 1016.86 1017.06 1017.30 1017.46 1017.66 1017.82 1018.02 1018.26
1012.26 1011.98 1011.66 1011.50 1011.58 1011.62 1011.62 1011.62 1011.74 1012.02 1012.26 1012.54 1012.70 1013.18 1013.70 1014.26 1014.38 1014.82 1014.98 1015.22 1015.66 1015.98 1015.94 1015.94 1016.14 1016.34 1016.26 1016.14 1016.02 1015.86 1015.94 1016.10 1016.34 1016.54 1016.70 1016.94 1017.22 1017.50 1017.82 1018.02 1018.22 1018.42
1012.10 1011.74 1011.46 1011.34 1011.46 1011.66 1011.70 1011.82 1011.82 1012.10 1012.26 1012.58 1013.06 1013.38 1013.86 1014.26 1014.78 1015.22 1014.98 1015.38 1015.54 1015.66 1015.74 1015.98 1016.26 1016.42 1016.30 1016.18 1016.02 1015.90 1015.82 1015.86 1016.10 1016.46 1016.70 1016.94 1017.18 1017.38 1017.82 1018.14 1018.38 1018.58
1012.02 1011.78 1011.66 1011.58 1011.58 1011.86 1011.78 1011.82 1012.10 1012.30 1012.50 1012.98 1013.54 1013.94 1014.46 1014.62 1015.18 1015.10 1015.22 1015.54 1015.66 1015.74 1015.78 1015.98 1016.18 1016.50 1016.30 1016.14 1016.02 1015.90 1015.86 1015.90 1016.14 1016.38 1016.78 1017.14 1017.42 1017.66 1018.02 1018.30 1018.54 1018.86
1012.42 1012.02 1011.94 1011.82 1011.70 1011.82 1012.14 1011.94 1012.06 1012.62 1012.90 1013.30 1013.82 1014.42 1014.86 1015.06 1015.10 1015.34 1015.54 1015.62 1015.50 1015.58 1015.90 1016.22 1016.26 1016.46 1016.26 1016.14 1016.02 1015.90 1015.94 1016.02 1016.38 1016.62 1016.94 1017.34 1017.66 1018.02 1018.30 1018.58 1018.74 1018.90
1013.26 1012.46 1012.14 1012.14 1012.10 1012.26 1012.54 1012.42 1012.62 1013.14 1013.46 1013.86 1014.38 1014.86 1015.30 1015.30 1015.10 1015.34 1015.54 1015.58 1015.70 1015.74 1016.06 1016.34 1016.34 1016.46 1016.26 1016.22 1016.18 1016.18 1016.18 1016.26 1016.78 1017.06 1017.46 1017.86 1018.26 1018.54 1018.74 1018.98 1019.14 1018.98
1013.98 1013.22 1012.82 1012.70 1012.82 1012.90 1013.02 1012.98 1013.42 1013.86 1014.14 1014.50 1014.94 1015.42 1015.66 1015.42 1015.46 1015.54 1015.78 1015.90 1015.98 1016.06 1016.06 1016.34 1016.74 1016.70 1016.42 1016.38 1016.42 1016.50 1016.58 1016.78 1017.30 1017.66 1018.14 1018.62 1019.02 1019.22 1019.42 1019.62 1019.78 1019.82
1014.74 1014.14 1013.74 1013.26 1013.54 1013.82 1013.66 1013.78 1014.26 1014.50 1014.90 1015.38 1015.46 1015.98 1016.02 1015.82 1016.10 1016.10 1016.22 1016.30 1016.42 1016.38 1016.30 1016.66 1017.10 1017.02 1016.82 1016.66 1016.66 1016.82 1016.90 1017.34 1017.74 1018.10 1018.58 1019.02 1019.38 1019.62 1019.70 1019.86 1019.94 1019.90
1015.46 1015.14 1014.74 1014.10 1013.94 1014.46 1014.82 1014.46 1014.54 1015.30 1015.82 1016.06 1015.98 1016.26 1016.50 1016.74 1016.58 1016.54 1016.74 1016.90 1017.02 1017.02 1016.90 1017.18 1017.42 1017.50 1017.30 1017.06 1016.98 1016.98 1017.18 1017.78 1018.10 1018.58 1019.06 1019.42 1019.82 1020.02 1020.06 1020.14 1020.22 1020.26
1016.10 1015.78 1015.58 1015.30 1014.82 1015.06 1015.62 1015.62 1015.30 1015.66 1016.10 1016.34 1016.58 1016.94 1017.30 1017.54 1017.26 1017.10 1017.34 1017.58 1017.74 1017.78 1017.66 1017.50 1017.90 1017.98 1017.74 1017.54 1017.42 1017.34 1017.34 1017.90 1018.34 1018.74 1019.46 1019.74 1020.10 1020.30 1020.42 1020.54 1020.66 1020.62
1016.62 1016.34 1016.18 1016.02 1015.74 1016.06 1016.34 1016.34 1016.18 1016.26 1016.74 1017.10 1017.58 1017.70 1017.74 1017.74 1017.70 1017.54 1017.66 1017.90 1018.18 1018.22 1018.18 1018.14 1018.38 1018.42 1018.26 1018.06 1017.90 1017.90 1017.82 1018.10 1018.42 1018.86 1019.46 1020.02 1020.18 1020.50 1020.66 1020.74 1020.94 1021.10
1017.46 1016.74 1016.70 1016.82 1016.70 1016.66 1016.78 1016.90 1017.14 1017.18 1017.38 1017.70 1018.06 1018.18 1018.14 1018.14 1018.14 1017.98 1018.02 1018.50 1018.66 1018.70 1018.78 1018.94 1018.98 1019.06 1018.98 1018.66 1018.38 1018.34 1018.34 1018.38 1018.58 1018.78 1019.54 1020.02 1020.30 1020.42 1020.66 1020.98 1021.14 1021.30
Wind_Speed
2 5 6 7 7 7 7 8 8 8 7 7 8 8 7 7 5 8 7 7 6 4 5 6 6 6 6 6 6 6 6 7 6 5 6 6 6 6 7 6 5 6
6 6 6 4 2 1 4 7 8 8 8 7 6 5 4 2 3 6 7 6 6 8 8 6 6 6 6 6 6 7 6 6 6 4 6 6 5 6 6 7 6 5
4 7 10 7 7 5 5 6 6 7 6 6 6 6 6 5 7 6 5 6 7 6 5 5 5 6 6 6 7 7 7 7 7 5 6 7 5 6 5 5 5 6
3 2 6 4 7 8 7 6 5 5 3 4 6 5 5 5 6 7 5 7 7 4 2 2 5 5 6 6 7 6 7 7 6 6 6 4 5 5 5 5 4 4
5 8 10 7 6 9 8 7 7 6 6 5 3 4 6 8 8 7 6 5 5 5 4 6 6 6 6 6 6 6 5 6 5 6 6 5 4 5 4 5 5 5
8 6 6 7 4 6 7 9 8 8 7 4 4 4 6 7 6 6 6 6 5 6 6 5 6 6 7 6 6 5 6 5 5 5 5 5 5 4 4 5 5 5
4 4 8 8 8 10 10 8 6 5 5 4 4 3 5 6 5 5 5 6 7 7 8 8 7 6 6 6 6 6 6 6 6 6 6 5 4 4 4 5 6 5
7 8 10 8 6 6 7 7 6 6 4 5 7 5 7 6 3 3 3 5 7 7 8 9 7 6 6 6 7 6 6 5 6 6 6 5 4 5 4 4 5 5
9 7 6 6 6 5 5 5 5 5 6 6 8 8 8 7 5 3 4 4 5 7 8 7 6 6 6 6 6 7 7 6 6 7 6 6 5 5 5 4 4 4
8 8 7 8 8 5 5 5 5 7 9 10 9 8 8 6 3 5 4 6 2 5 7 6 6 6 6 6 7 7 7 7 6 6 6 6 7 6 6 6 6 5
6 7 8 9 8 5 5 4 6 7 8 10 9 8 7 6 3 2 4 5 7 9 6 6 7 7 7 5 5 6 7 7 6 6 6 6 6 6 6 6 6 7
6 6 8 9 5 5 8 7 8 9 8 8 10 11 8 5 6 4 5 5 9 5 5 5 5 6 6 6 6 5 5 5 6 6 6 5 5 5 6 6 7 6
7 8 8 9 10 10 9 8 8 9 9 8 7 7 8 7 7 8 4 4 3 4 5 5 5 4 5 5 5 5 5 5 5 5 4 4 4 5 5 5 5 5
7 7 8 10 9 7 9 8 8 7 8 7 9 9 9 10 10 8 5 5 5 5 4 5 6 5 4 4 4 5 5 5 5 5 4 4 4 4 4 4 4 4
5 6 8 8 5 5 7 10 10 9 8 8 7 6 7 8 7 9 8 6 5 5 5 4 6 4 3 4 5 4 5 6 5 5 5 5 3 3 2 2 0 0
5 6 8 6 4 5 7 9 11 10 9 9 10 8 7 5 7 7 9 9 8 5 5 5 4 3 2 4 2 5 6 6 5 5 5 5 5 4 3 4 4 4
4 6 6 5 2 2 5 6 9 8 8 8 8 8 8 7 7 7 9 7 8 8 7 5 4 2 5 5 4 5 5 6 7 5 4 5 5 6 5 5 5 5
4 4 3 2 2 1 5 8 8 8 9 9 7 8 6 8 7 7 9 7 7 7 7 5 4 4 5 5 4 5 6 6 6 6 5 5 4 5 5 5 6 6
8 0 1 2 3 4 2 8 10 9 10 10 9 5 4 7 9 9 7 6 7 8 7 5 4 5 5 5 6 8 9 9 6 6 7 6 6 6 6 5 5 5
11 6 3 2 3 7 5 8 9 9 9 9 8 6 4 5 9 9 7 7 6 8 7 5 5 6 5 7 11 12 12 11 7 8 8 8 7 6 6 6 5 5
10 9 5 7 6 5 6 8 10 9 9 8 7 6 4 6 7 8 7 7 6 6 8 7 5 6 8 12 14 14 14 12 8 9 9 9 8 7 7 7 6 6
12 10 7 8 9 7 7 10 9 9 10 6 8 6 5 7 7 7 7 7 6 6 8 8 6 9 10 13 15 14 15 9 9 9 9 9 8 7 7 6 5 6
12 10 9 8 10 9 7 9 12 11 8 4 8 8 9 7 7 8 7 7 7 6 9 8 7 9 8 12 14 16 12 9 9 9 9 9 8 7 7 7 6 5
12 10 10 8 10 11 7 6 9 9 8 6 8 9 8 6 6 9 9 8 8 8 6 9 7 9 9 9 10 12 13 10 8 10 9 8 7 7 6 7 9 13
10 12 11 11 12 11 8 7 8 9 9 8 7 6 8 6 5 9 10 9 8 8 12 11 8 8 11 10 11 10 10 9 9 9 10 7 7 7 6 6 7 8
8 11 13 12 11 11 10 10 7 8 9 9 7 6 7 7 6 9 11 9 7 9 9 9 9 8 10 11 10 11 9 8 7 10 10 8 6 6 7 6 6 6
Wind_Direction
191 243 220 192 184 181 179 185 196 190 170 179 199 194 206 232 188 185 189 189 179 201 215 193 179 172 174 168 167 164 171 178 179 175 180 176 186 178 184 182 178 179
202 216 231 186 129 199 207 200 202 199 182 179 199 194 187 241 249 217 187 185 168 202 207 190 177 174 171 169 167 162 164 166 178 175 171 178 182 178 186 182 181 170
234 211 215 183 165 189 231 227 215 214 194 174 173 189 183 186 221 220 183 160 180 212 208 188 179 178 171 170 167 164 163 167 175 172 168 183 170 178 185 173 174 176
196 321 302 197 174 191 218 210 224 230 213 165 184 186 173 182 212 208 175 173 166 165 266 274 209 181 176 171 164 164 164 170 172 163 169 166 177 174 173 170 170 174
185 192 217 218 194 188 201 207 206 216 215 200 171 166 164 181 201 197 180 176 171 155 169 221 217 182 175 169 164 155 154 156 158 162 163 173 176 168 169 162 168 182
210 207 219 226 194 194 196 206 200 200 205 192 168 168 182 187 193 187 176 166 172 161 148 208 214 175 169 163 156 156 150 148 163 156 165 176 178 178 161 167 168 179
217 204 231 229 209 192 195 201 199 187 198 168 117 170 181 173 178 194 177 170 171 175 166 190 203 167 167 157 157 158 159 158 158 163 172 177 174 181 176 166 170 179
224 223 226 229 215 205 193 190 176 186 158 126 136 182 196 178 162 166 142 193 184 174 170 185 184 165 161 162 162 160 162 162 160 166 173 175 175 185 177 177 164 174
237 241 247 255 237 215 202 177 166 131 117 136 152 172 201 187 155 139 209 184 199 176 170 170 168 162 163 165 170 167 165 166 165 168 171 172 181 187 183 168 168 178
228 237 235 236 236 226 204 180 152 144 147 154 161 167 185 180 129 163 202 172 178 213 175 166 163 161 167 173 171 170 167 168 166 171 173 176 180 184 179 176 182 185
258 238 227 235 235 227 222 181 167 161 162 161 154 162 173 150 112 155 166 166 196 206 169 168 168 165 168 173 173 173 171 167 167 169 177 180 183 183 178 180 179 192
253 257 251 246 226 222 224 194 176 170 162 160 158 161 153 150 158 173 180 190 204 181 158 159 160 162 166 171 173 171 167 165 168 175 177 172 179 181 181 183 184 190
247 250 241 236 224 211 211 192 171 161 159 161 148 144 136 141 171 177 150 201 177 133 134 133 125 125 135 152 163 165 164 165 171 176 167 172 186 186 185 187 188 175
225 223 224 226 222 204 194 169 152 155 164 158 139 135 138 168 177 152 132 172 129 115 109 116 117 109 111 124 143 156 157 168 173 170 166 179 188 193 180 188 188 180
187 195 212 220 200 191 177 161 156 156 154 143 140 129 139 165 156 129 143 120 97 109 110 102 103 105 110 117 128 137 147 150 163 163 167 169 171 163 155 149 108 53
187 200 214 215 193 187 166 154 154 152 148 149 149 137 122 122 128 139 135 127 123 115 105 98 92 98 66 72 95 137 141 136 137 152 154 150 137 123 92 73 71 75
202 213 215 211 182 210 150 143 138 137 130 124 129 131 138 138 127 143 122 130 131 131 114 100 93 59 35 62 71 111 128 133 139 139 132 132 143 136 120 99 78 74
242 221 216 207 114 345 171 139 127 131 124 115 112 115 128 129 136 127 120 124 119 109 98 94 84 35 47 69 92 109 126 123 128 132 126 103 93 95 99 98 88 71
326 321 82 89 85 83 202 133 129 123 117 119 111 89 100 134 130 116 111 114 111 105 93 77 79 27 55 86 106 104 103 101 86 94 95 90 84 86 88 85 84 78
348 333 96 64 64 95 100 103 99 101 100 97 95 100 126 133 113 112 112 105 101 103 97 75 63 9 55 103 103 96 93 88 85 84 81 76 72 75 77 71 68 81
346 359 8 61 50 80 93 97 98 93 89 91 98 104 118 104 107 107 98 98 92 94 91 70 35 17 99 109 102 98 91 90 89 87 82 77 70 70 74 77 75 77
1 9 357 71 62 34 85 83 73 79 85 73 94 87 64 75 66 73 79 73 67 78 86 69 38 40 104 108 106 100 94 90 89 87 88 83 78 74 75 71 70 74
7 16 10 51 78 60 20 82 95 77 69 74 86 75 74 51 66 71 60 60 60 64 82 75 54 29 79 106 109 106 95 96 94 90 86 84 77 73 73 70 64 63
21 20 27 27 57 62 44 41 75 79 68 52 73 91 79 68 69 75 65 57 55 56 60 83 61 31 50 84 96 100 109 108 105 101 92 91 88 73 75 73 63 65
33 33 33 33 48 52 46 41 52 74 77 69 62 73 88 83 70 78 74 61 50 55 53 63 60 37 36 60 80 93 103 109 109 106 100 91 93 84 68 71 67 58
359 51 44 33 39 50 43 43 47 70 79 82 72 64 84 88 84 78 80 67 57 55 55 50 55 45 30 44 70 72 82 105 113 111 111 107 93 90 85 62 59 60